Zurück zum Katalog

USA 194 DEB

AktivLEO
NORAD 31708·DEBRIS·🇺🇸 United States

Gestartet Jun 15, 2007 von Cape Canaveral Space Force Station

Loading…

Nächste Überflüge (nächste 24 Stunden)

TLE

VeraltetSource: Mike McCants

Epoche: Sep 3, 2026, 19:18 UTC

1 31708U 07027C   26246.80452478 0.00000000  00000-0  00000-0 0    06
2 31708  63.3733 124.6866 0464020  24.7492 335.2508 13.40991912    08

Verfolge USA 194 DEB in Echtzeit mit AllMySat

Download on the App Store